Location: Observatoire
(46.1952°N, 5.3391°E)
Time: 08:27:20
(UTC+01:00)

Explorer 7 - Pass Details

Date: 20 February 2026
Orbit: 430 x 541 km, 50.2° (Epoch: 9 March)

Event Time Altitude Azimuth Distance (km) Brightness Sun altitude
Rises 18:15:22 0° 287° (WNW) 2,477 11.3 -1.4°
Reaches altitude 10° 18:17:32 10° 294° (WNW) 1,621 10.2 -1.8°
Maximum altitude 18:21:05 47° 9° (N) 639 7.0 -2.4°
Drops below altitude 10° 18:24:47 10° 85° (E) 1,686 8.6 -3.0°
Enters shadow 18:26:12 - 89° (E) 2,242 9.3 -3.3°
Sets 18:27:04 0° 91° (E) 2,590 - -3.4°
